This is the latest recevied weather packets stored in our database for station/object N6DZK. If no packets are shown the sender has not sent any weather packets the latest 10 day(s).
| Time | Temp. | Humidity | Pressure | Rain* | Wind** | Luminosity | Snow |
|---|---|---|---|---|---|---|---|
| 1777850965 | 20.56° C | 45% | 1012.7 hPa | 0 mm | - | 665 W/m² | - |
| 1777850662 | 20° C | 47% | 1012.7 hPa | 0 mm | - | 472 W/m² | - |
| 1777850360 | 20° C | 47% | 1012.7 hPa | 0 mm | - | 450 W/m² | - |
| 1777850057 | 20.56° C | 46% | 1012.8 hPa | 0 mm | - | 383 W/m² | - |
| 1777849753 | 20.56° C | 48% | 1012.8 hPa | 0 mm | - | 423 W/m² | - |
| 1777849450 | 20.56° C | 47% | 1012.9 hPa | 0 mm | - | 425 W/m² | - |
| 1777849148 | 21.11° C | 45% | 1012.9 hPa | 0 mm | - | 478 W/m² | - |
| 1777848843 | 21.67° C | 46% | 1012.8 hPa | 0 mm | - | 501 W/m² | - |
| 1777848540 | 21.67° C | 47% | 1013 hPa | 0 mm | - | 800 W/m² | - |
| 1777848237 | 21.67° C | 46% | 1013.1 hPa | 0 mm | - | 677 W/m² | - |
| 1777847935 | 22.22° C | 49% | 1012.9 hPa | 0 mm | - | 780 W/m² | - |
| 1777847633 | 21.11° C | 49% | 1012.9 hPa | 0 mm | - | 867 W/m² | - |
| 1777847328 | 20.56° C | 50% | 1013 hPa | 0 mm | - | 952 W/m² | - |
| 1777847027 | 20.56° C | 49% | 1012.9 hPa | 0 mm | - | 649 W/m² | - |
| 1777846724 | 21.11° C | 49% | 1012.9 hPa | 0 mm | - | 492 W/m² | - |
| 1777846423 | 21.11° C | 49% | 1013 hPa | 0 mm | - | 549 W/m² | - |
| 1777846118 | 21.11° C | 50% | 1013.1 hPa | 0 mm | - | 621 W/m² | - |
| 1777845815 | 21.11° C | 49% | 1013 hPa | 0 mm | - | 503 W/m² | - |
| 1777845512 | 21.11° C | 49% | 1013.2 hPa | 0 mm | - | 578 W/m² | - |
| 1777845209 | 21.11° C | 52% | 1013.2 hPa | 0 mm | - | 524 W/m² | - |
| 1777844907 | 21.11° C | 52% | 1013.1 hPa | 0 mm | - | 665 W/m² | - |
| 1777844604 | 21.67° C | 51% | 1013.4 hPa | 0 mm | - | 684 W/m² | - |
| 1777844301 | 21.11° C | 50% | 1013.1 hPa | 0 mm | - | 612 W/m² | - |
| 1777843999 | 20.56° C | 52% | 1013 hPa | 0 mm | - | 850 W/m² | - |
| 1777843696 | 20.56° C | 51% | 1013 hPa | 0 mm | - | 586 W/m² | - |
* Rain latest hour (hover to see other rain measurements)
** Current wind speed in m/s (hover to see current wind gust speed)